Weather observations for the past three days for
The Dalles Municipal Airport
Imperial (Metric)
Date Time (pdt) Wind (mph) Vis. (mi.) Weather Sky Cond. Temperature (ºF) Relative Humidity Wind Chill (°F) Heat Index (°F) Pressure Precipitation (in)
Air Dwpt 6 hour altimeter (in) sea level (mb) 1 hr 3 hr 6 hr
Max. Min.
09 09:53 Calm 10.00 Fair CLR 63 46 54% 30.13 1020.3
09 08:53 Calm 10.00 Fair CLR 57.9 46 65% 30.15 1021.0
09 07:53 E 5 10.00 Fair CLR 55.9 45 67% 30.15 1020.9
09 06:53 Calm 10.00 Fair CLR 51.1 42.1 71% 30.15 1020.8
09 05:53 SW 3 10.00 Fair CLR 46.9 41 80% 30.13 1020.3
09 04:53 E 8 10.00 Fair CLR 48.9 42.1 63 48.9 77% 46 30.13 1020.2
09 03:53 Calm 10.00 Fair CLR 53.1 44.1 72% 30.12 1019.9
09 02:53 W 5 10.00 Fair CLR 54 45 72% 30.12 1019.8
09 01:53 W 6 10.00 Fair CLR 57 44.1 62% 30.12 1020.0
09 00:53 NW 10 10.00 Fair CLR 59 45 60% 30.13 1020.3
08 23:53 W 14 10.00 Fair CLR 63 44.1 50% 30.12 1020.0
08 22:53 W 8 10.00 Fair CLR 63 43 71.1 61 48% 30.11 1019.7
08 21:53 W 8 10.00 Fair CLR 62.1 43 50% 30.12 1019.8
08 20:53 N 5 10.00 Fair CLR 63 43 48% 30.1 1019.2
08 19:53 W 21 10.00 Fair and Breezy CLR 66 43 43% 30.06 1017.9
08 18:53 W 20 G 32 10.00 Fair CLR 69.1 41 36% 30.06 1017.8
08 17:53 W 29 G 37 10.00 Fair and Windy CLR 71.1 41 34% 30.04 1017.2
08 16:53 NW 23 G 31 10.00 Fair and Breezy CLR 71.1 37.9 73 61 30% 30.05 1017.5
08 15:53 NW 21 G 35 10.00 Fair and Breezy CLR 72 35.1 26% 30.05 1017.5
08 14:53 NW 25 G 36 10.00 Fair and Breezy CLR 71.1 35.1 27% 30.05 1017.4
08 13:53 NW 22 G 38 10.00 Fair and Breezy CLR 69.1 34 27% 30.05 1017.5
08 12:53 NW 24 G 38 10.00 Fair and Breezy CLR 68 37.9 33% 30.04 1017.0
08 11:53 NW 20 G 30 10.00 Fair CLR 64 37 37% 30.06 1017.8
08 10:53 NW 20 10.00 Fair CLR 61 36 64.9 48 39% 30.06 1017.7
08 09:53 NW 21 G 29 10.00 Fair and Breezy CLR 64 39 40% 30.03 1016.7
08 08:53 NW 24 G 37 10.00 Fair and Breezy CLR 62.1 43 50% 30.03 1016.7
08 07:53 W 15 10.00 Fair CLR 59 39 48% 30.03 1016.7
08 06:53 W 16 G 23 10.00 Fair CLR 57.9 42.1 56% 30.01 1016.0
08 05:53 Calm 10.00 Fair CLR 55 39 55% 29.99 1015.5
08 04:53 W 3 10.00 Fair CLR 53.1 36 64 50 52% 29.99 1015.5
08 03:53 S 5 10.00 Fair CLR 52 36 55% 29.98 1015.0
08 02:53 Vrbl 5 10.00 Fair CLR 54 37 53% 29.98 1015.0
08 01:53 W 8 10.00 Fair CLR 59 36 42% 29.97 1014.6
08 00:53 Calm 10.00 Fair CLR 59 36 42% 29.96 1014.4
07 23:53 W 9 10.00 Fair CLR 62.1 36 38% 29.96 1014.4
07 22:53 W 12 10.00 Fair CLR 64 35.1 75.9 64 34% 29.95 1014.2
07 21:53 W 16 G 25 10.00 Fair CLR 66.9 33.1 29% 29.95 1014.1
07 20:53 NW 21 G 31 10.00 Fair and Breezy CLR 68 28.9 23% 29.93 1013.3
07 19:53 NW 25 G 38 10.00 Fair and Breezy CLR 71.1 19 14% 29.91 1012.6
07 18:53 NW 17 G 30 10.00 Fair CLR 73 19.9 13% 29.91 1012.6
07 17:53 NW 16 G 31 10.00 Fair CLR 73 23 15% 29.92 1012.9
07 16:53 NW 22 G 35 10.00 Fair and Breezy CLR 75.9 21 78.1 64.9 13% 76 29.91 1012.7
07 15:53 NW 20 G 33 10.00 Fair CLR 77 25 14% 76 29.92 1012.9
07 14:53 NW 22 G 32 10.00 Fair and Breezy CLR 77 27 16% 77 29.94 1013.6
07 13:53 NW 23 G 33 10.00 Fair and Breezy CLR 73 33.1 23% 29.95 1014.2
07 12:53 NW 22 G 33 10.00 Fair and Breezy CLR 71.1 34 26% 29.97 1014.9
07 11:53 NW 16 G 30 10.00 Fair CLR 68 39 35% 30 1015.9
07 10:53 NW 16 G 29 10.00 Fair CLR 64.9 39.9 64.9 55 40% 30 1015.9
07 09:53 NW 15 G 24 10.00 Fair CLR 63 43 48% 30.03 1016.8
07 08:53 NW 20 10.00 Fair CLR 61 43 52% 30.04 1017.1
07 07:53 NW 18 10.00 Fair CLR 59 45 60% 30.05 1017.6
07 06:53 NW 16 G 23 10.00 Fair CLR 55.9 46 70% 30.05 1017.6
07 05:53 W 9 10.00 Fair CLR 55.9 45 67% 30.04 1017.2
07 04:53 NW 18 G 28 10.00 Fair CLR 57 46 64 57 67% 30.03 1016.8
07 03:53 NW 20 G 31 10.00 Fair CLR 57.9 46.9 67% 30.01 1016.2
07 02:53 NW 14 10.00 Fair CLR 59 48 67% 30.01 1016.2
07 01:53 NW 16 G 25 10.00 Fair CLR 61 48 63% 30.01 1016.0
07 00:53 NW 16 G 31 10.00 Fair CLR 61 48.9 65% 30 1015.8
06 23:53 NW 25 G 35 10.00 Fair and Breezy CLR 62.1 50 65% 29.99 1015.4
06 22:53 W 17 G 28 10.00 Fair CLR 64 50 73 64 60% 30 1015.9
06 21:53 W 18 G 25 10.00 Fair CLR 64 51.1 63% 30.02 1016.4
06 20:53 NW 17 G 23 10.00 Fair CLR 66 48.9 54% 30 1015.8
06 19:53 NW 15 G 28 10.00 Fair CLR 70 45 41% 29.99 1015.4
06 18:53 NW 14 G 25 10.00 Fair CLR 71.1 45 39% 29.98 1015.0
06 17:53 NW 23 G 31 10.00 Fair and Breezy CLR 71.1 46.9 42% 29.98 1015.1
06 16:53 W 25 G 36 10.00 Fair and Breezy CLR 73 46 78.1 69.1 38% 29.96 1014.5
06 15:53 NW 30 G 43 10.00 Fair and Windy CLR 73.9 46 37% 29.96 1014.4
06 14:53 W 21 G 38 10.00 Fair and Breezy CLR 73.9 46 37% 29.97 1014.6
06 13:53 W 15 G 28 10.00 Fair CLR 75.9 46.9 36% 78 29.98 1015.2
06 12:53 NW 18 G 33 10.00 Fair CLR 75 48.9 40% 77 29.99 1015.3
06 11:53 NW 32 G 44 10.00 Light Rain and Windy CLR 73 50 44% 29.98 1015.0
06 10:53 NW 29 G 44 10.00 Fair and Windy CLR 70 50 71.1 61 49% 29.99 1015.3
Date Time (pdt) Wind (mph) Vis. (mi.) Weather Sky Cond. Air Dwpt Max. Min. Relative Humidity Wind Chill (°F) Heat Index (°F) altimeter (in) sea level (mb) 1 hr 3 hr 6 hr
6 hour
Temperature (ºF) Pressure Precipitation (in)